This is the latest recevied weather packets stored in our database for station/object LU8FCJ-5. If no packets are shown the sender has not sent any weather packets the latest 10 day(s).
| Time | Temp. | Humidity | Pressure | Rain* | Wind** | Luminosity | Snow |
|---|---|---|---|---|---|---|---|
| 1777779444 | 5° C | 76% | 1026.9 hPa | 0 mm | - | - | - |
| 1777779133 | 5° C | 74% | 1026.8 hPa | 0 mm | - | - | - |
| 1777778824 | 3.33° C | 78% | 1026.7 hPa | 0 mm | - | - | - |
| 1777778513 | 3.33° C | 78% | 1026.8 hPa | 0 mm | - | - | - |
| 1777778203 | 3.33° C | 80% | 1027 hPa | 0 mm | - | - | - |
| 1777777905 | 3.33° C | 80% | 1027 hPa | 0 mm | - | - | - |
| 1777777583 | 4.44° C | 82% | 1026.7 hPa | 0 mm | - | - | - |
| 1777777275 | 3.89° C | 86% | 1026.9 hPa | 0 mm | - | - | - |
| 1777776963 | 3.89° C | 89% | 1027.1 hPa | 0 mm | - | - | - |
| 1777776653 | 3.33° C | 88% | 1026.9 hPa | 0 mm | - | - | - |
| 1777776342 | 2.22° C | 84% | 1027.2 hPa | 0 mm | - | - | - |
| 1777776033 | 2.22° C | 82% | 1027 hPa | 0 mm | - | - | - |
| 1777775726 | 2.22° C | 81% | 1027.1 hPa | 0 mm | - | - | - |
| 1777775421 | 2.78° C | 81% | 1027.2 hPa | 0 mm | - | - | - |
| 1777775102 | 2.22° C | 80% | 1027.4 hPa | 0 mm | - | - | - |
| 1777774791 | 2.22° C | 78% | 1027.4 hPa | 0 mm | - | - | - |
| 1777774486 | 2.78° C | 77% | 1027.3 hPa | 0 mm | - | - | - |
| 1777774172 | 2.78° C | 75% | 1027.5 hPa | 0 mm | - | - | - |
| 1777773862 | 2.78° C | 76% | 1027.4 hPa | 0 mm | - | - | - |
| 1777773551 | 2.22° C | 78% | 1027.2 hPa | 0 mm | - | - | - |
| 1777773241 | 1.67° C | 78% | 1027.4 hPa | 0 mm | - | - | - |
| 1777772930 | 1.67° C | 78% | 1027.6 hPa | 0 mm | - | - | - |
| 1777772621 | 1.11° C | 77% | 1027.8 hPa | 0 mm | - | - | - |
| 1777772311 | 1.11° C | 77% | 1027.6 hPa | 0 mm | - | - | - |
| 1777772007 | 1.11° C | 75% | 1027.7 hPa | 0 mm | - | - | - |
* Rain latest hour (hover to see other rain measurements)
** Current wind speed in m/s (hover to see current wind gust speed)